Theta_e
337 336 327 319 302 300 297 310 322 319 321 328 328 324 322 327 321 315 335 342 352 356 361 361 362 362 362 362 361 361 362 361 361 363 363 363 363 362 362 362 361 358 355 354 353 352 350 350 351
324 321 317 311 297 292 296 312 315 319 324 328 330 328 325 324 332 334 337 349 354 358 360 358 362 361 361 361 361 361 362 361 361 362 363 363 363 362 361 360 359 356 353 352 350 348 349 351 352
320 316 310 304 296 294 298 314 318 322 325 327 326 330 328 326 334 335 343 349 356 357 357 358 362 361 362 361 361 361 362 361 361 362 362 363 363 361 360 359 358 354 351 350 348 350 352 355 357
313 312 310 299 297 301 304 312 321 321 325 326 325 330 337 341 334 338 346 352 352 355 357 361 362 361 362 361 361 361 361 361 361 361 362 362 361 360 358 357 356 353 349 347 350 353 356 358 359
310 306 299 295 297 302 308 311 314 320 323 320 330 330 335 339 341 345 346 349 351 354 358 359 362 362 362 362 361 361 361 360 360 361 361 361 359 358 356 355 354 351 349 352 354 356 358 359 357
304 303 295 294 298 304 308 311 315 315 316 323 332 330 333 344 340 342 344 347 352 353 356 359 363 362 362 362 360 360 360 359 359 360 359 359 357 356 356 354 353 352 354 355 357 358 355 352 353
299 296 293 294 297 300 305 308 310 316 316 319 338 329 333 335 337 340 343 349 352 354 354 355 358 360 362 361 359 359 359 359 358 358 357 357 356 355 355 354 353 354 355 356 357 354 348 348 348
302 297 294 292 295 297 305 304 306 310 317 339 335 323 323 332 337 337 347 348 350 352 353 353 355 356 355 356 360 359 358 358 358 357 356 357 356 355 355 353 354 355 355 356 355 351 347 347 348
304 294 291 293 295 298 305 300 306 310 314 331 337 333 337 337 338 339 342 342 345 349 349 351 352 353 349 351 354 358 357 358 357 357 357 353 348 349 350 352 353 356 356 356 355 351 348 348 348
301 292 295 300 301 300 300 300 303 305 306 331 331 330 338 334 337 337 337 336 338 342 346 349 349 347 347 351 348 347 349 351 351 350 350 347 345 344 347 351 355 357 357 356 354 350 349 346 327
298 296 300 302 303 303 301 303 305 304 302 322 320 332 337 333 332 336 336 336 335 340 343 346 346 344 344 345 346 346 346 348 347 347 346 344 344 341 345 345 349 347 353 341 336 334 333 328 319
293 301 302 304 305 303 302 305 304 303 304 318 338 338 335 339 335 335 335 335 334 335 339 342 343 340 339 347 345 344 346 344 343 343 342 340 338 342 342 348 345 341 334 333 327 323 322 319 320
295 299 302 304 304 302 305 303 304 303 307 309 338 325 323 330 335 336 338 337 335 333 335 338 340 338 338 343 341 342 343 343 341 340 342 342 339 341 348 345 338 328 323 322 319 318 317 316 318
299 299 300 301 301 299 300 302 301 305 307 308 314 329 329 332 334 333 338 337 335 334 333 336 336 336 339 339 337 339 340 340 338 338 343 344 345 341 333 324 322 320 319 317 317 317 317 317 317
298 295 298 298 299 298 300 299 299 305 306 305 306 307 315 330 331 333 337 339 338 336 336 334 334 335 338 336 335 337 338 338 339 342 344 344 345 333 327 323 320 319 320 319 317 318 318 318 322
295 292 289 296 300 302 299 293 301 304 303 304 305 306 308 318 329 332 334 340 342 340 336 338 340 339 337 336 334 336 338 339 342 344 343 344 336 329 324 322 319 321 321 321 317 315 317 317 319
290 287 289 294 299 299 297 295 301 304 303 302 303 303 307 306 319 330 335 340 342 341 338 337 341 339 338 338 335 341 341 343 344 344 338 336 331 326 325 321 319 322 321 321 322 319 316 316 318
286 288 289 291 298 296 296 295 300 302 302 303 304 304 303 306 307 321 336 340 342 342 341 340 346 343 344 344 340 340 343 344 345 338 336 335 331 330 325 320 323 323 320 320 320 317 316 319 319
293 291 291 294 299 295 295 295 298 301 299 299 301 301 302 304 306 307 337 340 342 343 342 342 346 345 346 343 341 341 340 339 336 335 334 332 328 329 323 320 326 324 321 321 322 324 313 315 319
294 292 291 294 298 296 295 294 298 299 300 301 300 300 302 301 304 306 334 338 340 342 343 343 346 347 346 345 343 344 340 335 338 332 333 330 326 326 323 322 324 322 322 321 322 322 320 315 317
293 292 292 292 297 296 293 292 293 298 299 301 302 303 303 304 304 305 333 338 339 341 343 343 344 347 346 344 343 343 334 330 328 328 327 326 326 327 324 323 323 322 322 321 322 322 321 315 318
291 297 297 295 292 287 293 287 289 294 296 298 300 300 301 303 303 305 327 338 339 339 342 344 345 346 346 344 343 343 336 331 330 330 325 325 325 327 325 325 324 324 322 323 322 324 324 322 314
295 300 297 296 291 288 289 285 288 292 294 296 299 301 303 302 302 303 326 338 340 341 340 343 345 345 346 344 343 342 341 330 329 327 324 323 322 326 326 328 324 325 325 321 323 323 322 321 314
301 296 294 291 288 284 287 287 285 290 294 296 300 302 307 308 311 310 323 337 339 341 341 341 343 344 345 343 342 341 341 327 326 325 324 323 322 323 328 329 326 328 325 325 322 324 322 322 321
295 292 285 283 282 282 289 286 287 299 305 303 301 302 304 304 312 317 319 331 337 338 339 339 339 337 339 339 336 336 338 328 326 325 325 324 324 322 326 327 325 329 328 326 325 324 323 323 318
292 294 287 280 279 283 290 284 289 305 307 307 307 304 305 303 304 314 321 323 331 332 332 333 334 337 337 338 337 337 332 328 328 327 326 326 327 326 327 330 329 330 330 328 324 323 324 321 320
289 287 291 288 287 283 287 290 299 304 304 305 303 304 303 303 304 310 316 321 325 325 328 331 330 330 333 331 334 336 336 329 327 326 327 327 328 327 327 328 329 330 330 329 325 325 324 322 320
292 293 287 290 281 279 285 286 290 296 299 302 300 301 303 304 304 307 312 318 321 325 324 324 326 327 329 328 329 334 338 336 332 329 328 327 326 326 327 328 329 329 330 329 327 324 325 322 321
288 286 286 288 291 284 281 284 298 296 298 299 300 302 303 304 305 306 307 312 320 322 325 325 324 325 323 325 327 327 328 333 336 333 331 329 328 328 326 328 330 330 330 328 326 325 326 323 321
291 288 286 279 280 286 288 285 303 301 301 301 301 302 303 304 307 308 308 309 311 320 321 323 324 325 326 330 328 327 327 326 331 334 333 331 330 330 328 329 329 330 330 329 327 325 327 324 322
Wind_Speed
4 5 2 3 4 6 1 4 3 5 16 7 13 7 5 13 11 6 7 11 20 19 17 18 21 19 18 18 18 19 18 16 15 15 14 13 12 12 10 8 6 5 5 5 5 5 5 7 8
1 4 3 2 4 5 6 6 10 13 23 22 10 13 15 11 3 8 7 15 21 17 15 17 23 22 19 18 18 16 16 16 15 15 14 13 11 10 10 8 5 3 3 4 4 4 5 6 7
2 2 4 4 4 5 5 5 12 10 14 4 3 4 4 5 9 13 11 17 16 15 11 16 23 21 19 18 19 17 15 16 15 15 14 13 11 9 8 7 5 3 2 3 4 5 7 8 9
2 4 4 3 9 8 6 4 11 13 3 11 8 1 2 7 11 10 20 20 15 12 12 17 22 23 20 19 18 17 15 14 14 14 14 13 12 9 8 7 4 2 1 2 3 5 7 9 10
4 3 2 3 7 7 4 12 18 15 4 6 11 2 4 5 10 21 18 18 19 14 11 14 18 20 22 21 19 17 15 13 12 12 12 11 10 9 8 6 5 3 2 1 4 5 6 8 10
3 3 3 5 7 7 5 7 5 15 5 3 10 6 3 2 10 14 16 11 12 18 16 13 16 17 17 19 19 18 17 15 13 12 11 10 9 8 7 6 4 3 2 2 4 5 7 8 10
5 5 5 4 6 11 4 7 12 6 5 3 2 6 4 5 10 17 18 14 13 10 14 14 12 13 17 17 18 17 17 16 14 12 11 10 9 8 7 6 5 4 4 4 5 5 7 9 10
6 5 2 4 5 16 2 9 6 8 16 5 10 3 6 11 17 15 16 12 14 12 12 15 13 9 9 10 16 17 16 16 15 13 11 10 9 8 8 8 7 6 6 6 5 5 8 10 10
4 1 4 6 5 10 8 6 9 9 9 6 11 10 15 1 17 19 15 11 11 11 12 12 12 9 6 6 10 14 18 16 14 12 11 8 4 5 7 6 7 7 7 7 5 5 8 11 10
5 5 9 8 7 11 5 4 8 9 12 6 9 17 23 12 18 22 19 16 15 16 12 12 12 10 7 8 6 4 7 5 5 5 6 4 5 4 5 6 10 7 8 7 5 6 9 8 5
3 7 5 7 10 11 5 9 4 7 8 2 6 8 10 6 10 17 19 20 19 19 13 14 13 12 10 7 4 3 2 3 4 6 5 5 4 3 3 3 1 2 6 2 3 4 3 4 3
3 9 6 9 9 7 9 6 4 4 7 4 10 16 15 7 10 18 18 18 16 16 17 16 15 13 10 6 6 5 4 4 3 5 6 4 3 3 4 4 3 3 2 2 3 1 2 1 0
5 9 9 11 11 9 11 11 9 6 6 3 11 8 12 18 20 20 19 18 17 18 17 18 18 15 12 11 7 6 5 5 5 4 5 5 4 4 3 4 3 3 2 3 2 2 0 4 2
6 7 10 8 8 5 5 11 3 6 5 2 8 11 8 16 13 12 15 18 19 18 18 18 18 17 15 12 12 9 7 7 5 5 6 7 4 4 4 4 4 3 3 4 2 1 1 2 0
4 6 9 6 5 5 2 8 7 7 8 4 8 6 9 12 7 15 20 19 18 13 16 18 16 16 16 16 14 10 8 7 6 7 6 7 5 6 6 4 4 4 3 5 4 4 3 4 2
6 3 4 8 6 7 5 10 10 12 7 13 7 8 8 11 12 12 12 21 21 17 20 16 14 16 16 13 12 10 8 7 7 5 5 6 6 7 6 5 4 3 4 3 3 3 3 3 2
6 5 6 10 6 6 4 10 11 9 8 11 12 8 9 8 11 11 7 16 23 23 21 20 18 18 17 14 11 10 10 8 7 5 5 7 7 7 6 5 4 5 4 3 3 3 2 2 1
5 6 5 8 11 0 9 10 11 12 7 14 14 13 8 9 12 11 11 15 20 23 19 19 16 18 17 12 10 5 6 6 7 7 6 9 6 7 6 5 5 5 4 4 3 3 3 1 1
7 6 7 9 14 4 9 8 11 11 6 10 12 11 10 9 10 6 12 17 18 19 22 22 19 19 15 12 12 8 8 6 4 7 10 8 7 7 7 5 5 5 5 5 4 3 3 3 2
9 9 13 10 12 8 9 8 9 6 7 7 9 9 10 6 6 5 10 16 21 22 24 23 21 20 16 12 10 8 8 5 8 6 7 8 8 8 7 8 6 6 4 4 4 4 2 1 1
13 13 14 16 16 6 5 8 4 8 4 7 8 7 6 9 9 7 11 18 19 23 22 22 23 21 16 14 8 5 5 6 4 4 4 5 8 8 8 8 7 6 4 4 3 3 4 3 2
13 11 16 10 4 6 4 12 5 6 10 5 9 9 11 11 7 7 11 15 19 22 21 23 22 23 19 18 16 17 11 12 8 9 4 5 7 7 7 7 6 6 4 6 4 3 3 4 3
10 11 15 13 7 5 3 2 8 4 9 11 10 9 10 10 10 11 13 20 22 20 20 21 22 20 16 18 18 14 13 9 9 7 9 5 6 7 8 8 8 6 4 4 6 4 4 3 3
6 5 3 1 2 9 6 6 2 3 5 9 12 18 21 21 17 14 9 17 20 18 16 16 17 17 18 19 17 19 17 11 12 10 10 7 5 5 7 7 7 7 6 6 5 5 6 4 4
10 7 5 5 2 7 8 3 7 6 10 10 14 16 17 20 22 20 19 6 16 17 14 8 6 6 8 7 7 5 3 7 19 18 12 12 8 4 8 8 8 5 5 6 6 5 5 5 4
4 3 3 5 2 5 5 5 4 4 6 11 15 10 16 22 20 23 23 17 11 10 9 9 10 10 9 9 7 6 7 2 7 14 14 11 12 12 15 14 15 14 11 7 6 5 5 5 4
7 6 7 4 3 1 5 2 2 7 10 12 14 16 16 17 20 19 21 20 18 9 8 6 10 6 10 8 7 7 5 3 6 7 8 10 8 9 11 12 12 11 10 11 8 5 6 6 5
7 8 6 5 5 4 4 3 1 7 8 8 13 10 9 14 19 21 19 17 16 18 8 8 7 5 5 2 7 8 7 3 3 7 9 4 2 6 10 11 11 8 8 5 6 5 5 7 5
3 3 4 2 5 2 4 5 2 2 1 3 5 4 6 11 12 15 17 17 13 14 14 13 8 9 7 5 7 8 12 20 10 9 11 6 5 7 6 8 12 12 12 9 6 5 6 8 7
2 5 4 4 5 4 5 7 4 5 6 4 4 3 2 7 5 9 13 15 17 12 11 8 6 7 7 8 6 5 7 6 14 19 13 5 6 5 5 7 11 11 12 11 11 10 9 9 10
Wind_Direction
173 182 146 52 46 61 216 223 104 34 341 225 203 195 204 258 187 228 127 130 135 148 156 155 146 143 145 142 140 138 136 133 133 128 124 121 122 120 113 103 101 100 95 86 68 45 21 360 351
170 171 44 93 92 74 268 192 197 160 193 225 202 227 240 260 115 122 97 146 142 146 156 153 147 146 149 145 140 141 139 137 139 137 134 131 129 126 122 117 111 100 72 63 44 23 1 345 338
216 193 101 126 144 165 201 229 214 253 204 210 228 159 235 211 122 147 124 140 135 143 157 156 146 146 148 149 144 144 146 144 146 144 140 138 135 134 130 128 131 124 41 15 11 358 346 335 332
77 20 19 123 236 234 184 264 255 276 296 166 234 190 94 336 146 138 141 139 134 140 147 157 149 148 152 151 147 147 148 149 150 150 144 145 143 144 145 145 149 137 81 351 340 335 331 321 320
35 63 76 252 246 243 213 216 240 245 239 185 170 71 62 10 99 127 142 145 140 141 146 152 153 153 154 153 151 151 150 152 153 153 149 150 148 153 155 157 163 160 136 310 305 310 313 310 312
27 96 95 240 262 272 289 300 310 278 268 52 118 112 182 233 133 135 137 137 137 143 149 154 155 158 156 155 153 154 154 157 159 158 155 156 157 160 162 162 173 184 192 236 293 308 312 317 326
128 95 210 237 275 292 309 316 326 260 246 233 52 109 264 264 171 147 139 136 137 143 144 154 158 160 160 158 156 157 158 158 161 162 162 164 167 167 172 176 187 208 240 255 274 303 321 324 330
126 100 223 241 269 277 55 338 310 351 292 100 146 154 199 196 151 142 126 138 142 141 148 155 161 153 158 164 163 160 161 163 165 165 166 171 172 178 184 194 204 213 246 266 288 323 325 317 320
115 81 222 232 239 268 337 347 326 290 331 126 140 100 270 326 135 130 134 137 151 148 152 153 159 156 145 151 173 167 167 166 165 167 170 172 178 194 208 205 217 218 240 268 289 321 314 315 318
134 160 229 208 237 277 276 308 306 336 338 326 119 159 250 144 139 145 157 164 168 156 167 165 159 156 155 161 157 165 172 163 163 169 171 176 190 204 214 228 220 230 243 263 307 304 297 318 328
211 214 220 256 249 260 260 283 247 319 339 56 188 96 34 13 142 161 169 175 170 168 165 173 165 158 162 158 146 159 158 163 172 178 179 191 189 205 209 249 241 209 258 307 333 308 297 303 320
224 271 236 263 259 275 267 256 283 241 239 310 146 147 119 206 227 176 179 174 168 168 174 172 169 162 166 148 166 168 171 181 186 200 186 187 200 198 202 215 209 222 236 241 262 249 274 302 164
203 258 261 252 259 258 275 264 239 245 238 266 160 160 178 202 180 182 182 171 168 174 178 177 170 168 165 162 170 173 184 192 198 200 196 189 192 214 177 182 186 208 161 137 179 185 283 34 13
259 271 266 275 262 247 247 276 177 252 277 357 127 203 222 214 211 142 180 176 180 176 177 175 179 171 164 168 174 181 188 193 185 200 202 200 183 190 142 153 150 146 155 172 143 66 100 3 89
268 301 313 289 270 275 4 311 277 255 293 265 175 233 192 223 253 183 178 181 171 178 172 180 174 177 171 175 173 177 190 182 185 205 197 193 180 155 145 135 155 164 107 87 70 29 72 49 60
0 26 320 292 335 283 114 276 269 273 259 281 226 231 214 227 206 241 172 175 176 168 178 173 176 176 179 181 179 177 179 180 190 191 175 168 159 145 140 141 129 94 82 86 84 60 66 71 92
7 251 298 309 275 257 200 277 261 261 253 257 271 202 232 248 219 220 182 170 170 177 176 172 176 172 181 179 184 179 171 174 181 152 158 160 137 151 127 130 130 110 98 80 89 44 100 53 69
266 286 280 265 273 146 289 272 285 282 231 249 249 261 230 233 254 213 175 171 171 167 169 167 168 174 174 174 176 148 152 161 157 153 166 149 145 135 130 130 125 121 110 94 74 84 35 112 210
234 235 249 266 274 211 250 257 266 276 299 265 252 241 245 244 252 243 179 171 166 166 164 171 166 177 172 170 163 159 151 153 135 159 164 152 144 145 146 134 126 132 134 150 152 131 97 23 42
244 253 272 281 261 182 266 262 264 280 263 256 253 243 230 228 260 267 182 178 166 169 177 175 175 174 175 176 168 160 150 146 159 156 161 156 150 153 150 143 146 150 138 138 141 142 155 138 119
249 240 251 244 268 283 283 287 311 303 292 291 279 256 257 243 247 262 175 188 181 173 175 177 181 180 177 166 144 107 90 103 117 159 150 175 155 159 151 155 146 154 143 159 158 143 143 143 343
251 238 238 237 197 247 215 275 300 270 296 293 298 301 284 282 235 224 180 182 197 188 180 180 182 183 180 169 167 163 169 167 176 166 146 163 160 153 147 146 151 154 151 164 164 150 147 131 159
243 265 260 253 223 177 290 28 266 3 323 299 289 290 286 276 256 238 192 181 194 193 189 188 187 187 173 177 179 176 174 168 146 147 147 148 154 152 157 158 159 162 167 167 150 136 124 122 135
312 298 276 18 147 253 208 171 257 248 281 316 337 9 11 5 354 352 237 189 187 191 196 192 188 191 178 180 179 183 174 156 146 151 156 164 162 162 168 159 162 164 164 171 169 150 144 134 122
21 40 335 320 310 231 215 186 222 73 33 39 58 33 21 12 10 21 17 253 184 190 185 164 134 81 76 64 43 12 33 196 165 165 162 161 173 166 180 165 163 168 179 175 159 154 143 151 138
317 108 157 281 265 289 295 214 188 76 85 73 50 33 24 24 12 23 25 30 40 38 56 78 96 91 97 92 89 84 107 214 215 184 168 167 179 191 185 185 177 174 171 171 163 158 156 144 135
330 45 279 251 272 224 243 81 19 24 29 44 47 35 21 16 17 23 18 28 44 33 343 133 134 121 120 115 94 75 105 194 260 236 201 169 191 208 192 177 176 180 175 169 166 157 163 155 149
32 308 347 15 337 293 300 348 95 11 346 32 34 25 26 29 23 21 17 18 21 35 20 23 14 357 306 122 152 143 150 193 313 301 259 182 237 232 193 195 152 166 149 179 170 162 174 155 169
7 348 303 144 168 217 328 293 18 177 228 11 43 14 6 41 28 27 12 3 27 33 27 24 12 343 305 236 230 231 190 171 171 250 266 249 200 235 215 182 161 177 169 164 172 196 188 174 170
238 38 10 101 292 199 194 260 91 0 346 333 32 347 151 122 65 19 31 2 358 32 19 22 23 351 307 301 285 244 268 228 200 206 196 259 256 272 286 229 176 184 188 170 180 194 195 198 180